[[{"header":{"parameterUnit":"m.s-1","parameterCategory":1,"la1":30.2991,"la2":30.254,"lo1":-89.0895,"lo2":-89.0444,"dy":0.0017,"dx":0.0017,"nx":28,"ny":28,"refTime":"2024-06-02T03:00:00:Z","depth":0,"parameterNumber":2,"parameterNumberName":"U-component_of_WINDS"},"data":[0,0,0,0,0,0,0,0,0,0,0,0,0,0,0,0,0,0,0,0,0,0,0,0,0,0,0,0,0,0,0,0,0,0,0,0,0,0,0,0,0,0,0,0,0,0,0,0,0,0,0,0,0,0,0,0,0,0,-1.8983,-1.8982,0,-1.891,-1.8909,-1.8908,-1.884,-1.8839,-1.8838,-1.8837,-1.8761,-1.8759,-1.8758,0,0,0,0,0,0,0,0,0,0,0,0,0,-1.9063,-1.9062,-1.8983,-1.8982,-1.8981,-1.891,-1.8909,-1.8908,-1.884,-1.8839,-1.8838,-1.8837,-1.8761,-1.8759,-1.8758,0,0,0,0,0,0,0,0,0,0,0,0,0,-1.9013,-1.9062,-1.8983,-1.8939,-1.8934,-1.891,-1.8909,-1.8908,-1.884,-1.8839,-1.8837,-1.8836,-1.8761,-1.876,-1.8758,-1.8772,0,0,-1.8752,-1.8751,0,0,0,0,0,0,0,0,-1.9016,-1.901,-1.8946,-1.8942,-1.8936,-1.8883,-1.8909,-1.8862,-1.884,-1.8876,-1.8837,-1.8836,-1.8802,-1.8797,-1.8786,-1.8768,-1.8765,-1.8752,-1.8751,-1.875,-1.8749,0,0,0,0,0,0,0,-1.9019,-1.9013,-1.8954,-1.8945,-1.8939,-1.8922,-1.8914,-1.89,-1.8847,-1.8872,-1.8867,-1.886,-1.8799,-1.8788,-1.8783,-1.8763,-1.8752,-1.875,-1.8749,-1.8748,-1.8754,-1.8755,0,0,0,0,0,0,-1.903,-1.9016,-1.8956,-1.8952,-1.8974,-1.8922,-1.8912,-1.8901,-1.8847,-1.8837,-1.8861,-1.8857,-1.8792,-1.8786,-1.878,-1.8793,-1.875,-1.8748,-1.8747,-1.8753,-1.8754,-1.8755,0,0,0,0,0,0,-1.9032,-1.9025,-1.8959,-1.8983,-1.8973,-1.8922,-1.891,-1.89,-1.8889,-1.8838,-1.8828,-1.8859,-1.879,-1.8783,-1.8774,-1.8789,-1.8747,-1.8746,-1.8751,-1.8753,-1.8755,-1.8818,0,0,0,0,0,0,-1.9034,-1.9026,-1.9031,-1.8983,-1.8972,-1.8955,-1.8911,-1.89,-1.8886,-1.888,-1.8834,-1.8825,-1.8789,-1.8778,-1.8773,-1.8786,-1.8744,-1.8749,-1.8752,-1.8754,-1.8814,-1.8822,-1.8828,0,0,0,0,0,-1.9037,-1.9051,-1.9032,-1.9025,-1.8977,-1.8956,-1.8949,-1.8908,-1.8887,-1.8892,-1.8859,-1.8826,-1.8789,-1.8777,-1.8771,-1.8784,-1.8748,-1.8751,-1.8754,-1.8811,-1.882,-1.8828,0,0,0,0,0,0,-1.9101,-1.9044,-1.9022,-1.902,-1.8994,-1.8944,-1.8948,-1.8919,-1.8897,-1.8892,-1.8842,-1.8832,-1.8829,-1.8806,-1.8794,-1.8795,-1.8764,-1.8766,-1.881,-1.8818,-1.8825,-1.883,-1.8743,0,0,0,0,0,-1.9115,-1.9103,-1.9054,-1.9058,-1.9045,-1.9,-1.8989,-1.896,-1.893,-1.8918,-1.8884,-1.8856,-1.8838,-1.8827,-1.8807,-1.8811,-1.88,-1.8817,-1.8824,-1.883,-1.8832,-1.8832,-1.8839,-1.8765,-1.8765,-1.8765,0,0,-1.9144,-1.9111,-1.9106,-1.907,-1.9045,-1.9034,-1.899,-1.898,-1.897,-1.8916,-1.8905,-1.8881,-1.8846,-1.8844,-1.8841,-1.8824,-1.885,-1.8834,-1.8839,-1.8837,-1.8836,-1.8843,-1.8849,-1.8767,-1.8766,-1.8766,0,0,-1.9189,-1.9164,-1.9164,-1.9141,-1.9105,-1.9075,-1.9076,-1.9031,-1.9012,-1.9002,-1.8961,-1.8949,-1.8919,-1.8896,-1.888,-1.892,-1.8888,-1.8915,-1.895,-1.8951,-1.8957,-1.8962,-1.8976,-1.8981,-1.8917,-1.8917,-1.8917,0,-1.9229,-1.921,-1.9168,-1.916,-1.9145,-1.9096,-1.9096,-1.9076,-1.9036,-1.9026,-1.9009,-1.897,-1.8943,-1.8935,-1.8945,-1.8934,-1.8933,-1.8919,-1.896,-1.8965,-1.8968,-1.8981,-1.8986,-1.892,-1.892,-1.892,-1.8919,0,-1.926,-1.9248,-1.9253,-1.9216,-1.9202,-1.9198,-1.9155,-1.9145,-1.9118,-1.909,-1.908,-1.9047,-1.902,-1.9016,-1.8989,-1.9004,-1.8995,-1.897,-1.8937,-1.898,-1.899,-1.8995,-1.8925,-1.8924,-1.8923,-1.8922,0,0,-1.9342,-1.9283,-1.9285,-1.9268,-1.9226,-1.9216,-1.921,-1.9185,-1.9178,-1.9152,-1.9146,-1.9123,-1.9099,-1.9081,-1.9052,-1.9053,-1.9086,-1.9027,-1.9025,-1.9038,-1.91,-1.9119,-1.9125,-1.9066,-1.9066,-1.9067,-1.9103,0,-1.938,-1.9367,-1.9329,-1.9327,-1.9316,-1.927,-1.9265,-1.9239,-1.9213,-1.9199,-1.917,-1.9154,-1.9125,-1.9114,-1.9113,-1.9082,-1.9097,-1.9079,-1.9058,-1.9058,-1.9067,-1.913,-1.915,-1.9185,-1.9107,-1.9107,-1.9108,0,-1.9421,-1.94,-1.9397,-1.9356,-1.935,-1.9346,-1.932,-1.9308,-1.9278,-1.9258,-1.924,-1.9208,-1.9199,-1.9171,-1.9158,-1.9147,-1.9136,-1.912,-1.912,-1.9116,-1.9085,-1.9126,-1.9195,-1.92,-1.9114,-1.9114,-1.9113,0,-1.948,-1.9451,-1.9445,-1.9432,-1.9385,-1.9383,-1.9363,-1.9332,-1.9319,-1.9297,-1.9288,-1.9265,-1.9252,-1.9235,-1.9197,-1.918,-1.9188,-1.9157,-1.9172,-1.9173,-1.9174,-1.9174,-1.9241,-1.917,-1.917,-1.917,-1.917,0,-1.9526,-1.9526,-1.9471,-1.9467,-1.9466,-1.9424,-1.9424,-1.94,-1.9372,-1.9363,-1.9323,-1.9316,-1.9267,-1.9254,-1.9224,-1.9218,-1.9213,-1.9197,-1.9188,-1.9199,-1.9201,-1.9191,-1.9187,-1.9171,-1.9171,-1.9171,-1.917,0,-1.959,-1.9554,-1.9545,-1.9501,-1.9491,-1.9492,-1.9454,-1.9449,-1.9422,-1.9411,-1.9406,-1.9362,-1.9345,-1.9306,-1.9278,-1.9258,-1.9259,-1.9245,-1.9269,-1.9264,-1.9281,-1.9279,-1.9342,-1.9348,-1.9275,-1.9275,-1.9276,0,-1.9621,-1.962,-1.9577,-1.9568,-1.955,-1.9537,-1.9524,-1.9483,-1.9471,-1.9438,-1.9437,-1.9416,-1.9397,-1.9372,-1.9337,-1.9316,-1.93,-1.9324,-1.9297,-1.9308,-1.93,-1.93,-1.9299,-1.933,-1.9331,-1.9331,-1.9332,0,-1.9679,-1.9661,-1.9645,-1.9622,-1.9608,-1.9589,-1.9566,-1.9562,-1.9515,-1.9504,-1.9486,-1.9472,-1.9444,-1.9424,-1.9398,-1.9377,-1.9347,-1.9341,-1.9343,-1.9354,-1.9367,-1.9359,-1.9284,-1.934,-1.9339,-1.9338,-1.9338,-1.9338,-1.9726,-1.9724,-1.9693,-1.9676,-1.9656,-1.9636,-1.963,-1.9602,-1.9586,-1.9561,-1.9538,-1.9522,-1.9492,-1.9454,-1.9435,-1.9422,-1.9407,-1.941,-1.9411,-1.9412,-1.9417,-1.9371,-1.9418,-1.9417,-1.9417,-1.9417,-1.9417,0,-1.9782,-1.976,-1.9745,-1.9716,-1.9703,-1.9677,-1.9652,-1.9642,-1.9629,-1.9605,-1.9588,-1.9568,-1.9549,-1.9514,-1.9491,-1.9488,-1.9473,-1.9483,-1.9482,-1.9478,-1.9432,-1.9432,-1.9495,-1.9495,-1.9495,-1.9495,-1.9495,-1.9495,-1.9809,-1.9803,-1.9782,-1.9765,-1.9744,-1.9728,-1.9716,-1.9698,-1.9678,-1.9658,-1.9642,-1.962,-1.9591,-1.9567,-1.9548,-1.9538,-1.9532,-1.9546,-1.9532,-1.9489,-1.9481,-1.9474,-1.9474,-1.9545,-1.9545,-1.9579,-1.9579,-1.9579]},{"header":{"parameterUnit":"m.s-1","parameterCategory":1,"la1":30.2991,"la2":30.254,"lo1":-89.0895,"lo2":-89.0444,"dy":0.0017,"dx":0.0017,"nx":28,"ny":28,"refTime":"2024-06-02T03:00:00:Z","depth":0,"parameterNumber":3,"parameterNumberName":"V-component_of_WINDS"},"data":[0,0,0,0,0,0,0,0,0,0,0,0,0,0,0,0,0,0,0,0,0,0,0,0,0,0,0,0,0,0,0,0,0,0,0,0,0,0,0,0,0,0,0,0,0,0,0,0,0,0,0,0,0,0,0,0,0,0,4.0999,4.0998,0,4.0991,4.099,4.099,4.0954,4.0953,4.0953,4.0952,4.0944,4.0945,4.0946,0,0,0,0,0,0,0,0,0,0,0,0,0,4.0984,4.0984,4.0999,4.0998,4.0998,4.0991,4.099,4.099,4.0954,4.0953,4.0952,4.0951,4.0944,4.0945,4.0946,0,0,0,0,0,0,0,0,0,0,0,0,0,4.0984,4.0984,4.0999,4.0979,4.0978,4.0991,4.099,4.099,4.0955,4.0953,4.0952,4.0951,4.0944,4.0945,4.0946,4.0977,0,0,4.0949,4.0949,0,0,0,0,0,0,0,0,4.0984,4.0985,4.0982,4.0981,4.0979,4.0972,4.0982,4.0986,4.0955,4.0963,4.0952,4.095,4.0955,4.0955,4.0956,4.0976,4.0976,4.0949,4.0949,4.095,4.095,0,0,0,0,0,0,0,4.0984,4.0985,4.0995,4.0982,4.098,4.0972,4.097,4.0983,4.0966,4.0963,4.096,4.0959,4.0954,4.0955,4.0956,4.0976,4.0949,4.0949,4.095,4.095,4.1022,4.1023,0,0,0,0,0,0,4.0987,4.0985,4.0996,4.0995,4.0979,4.0973,4.0971,4.0976,4.0966,4.0963,4.0961,4.0958,4.0954,4.0955,4.0955,4.0991,4.095,4.095,4.0951,4.102,4.1022,4.1023,0,0,0,0,0,0,4.0987,4.0988,4.0996,4.099,4.099,4.0975,4.0979,4.0976,4.0978,4.0965,4.0961,4.0965,4.0953,4.0954,4.0972,4.099,4.0951,4.0952,4.1019,4.1021,4.1023,4.1062,0,0,0,0,0,0,4.0986,4.0988,4.1,4.099,4.099,4.1012,4.0981,4.0977,4.0979,4.0976,4.0968,4.0966,4.0952,4.097,4.0973,4.099,4.0952,4.1017,4.102,4.1022,4.1059,4.1065,4.1071,0,0,0,0,0,4.0986,4.1011,4.1,4.1002,4.1004,4.1013,4.1014,4.0998,4.0981,4.0992,4.0984,4.0966,4.0988,4.0973,4.0975,4.0993,4.1016,4.1019,4.1022,4.1057,4.1064,4.1071,0,0,0,0,0,0,4.1024,4.101,4.0997,4.102,4.1018,4.1007,4.1021,4.1006,4.1009,4.1005,4.0986,4.0984,4.1005,4.1001,4.0984,4.1023,4.0999,4.1002,4.1025,4.1032,4.1037,4.1038,4.0953,0,0,0,0,0,4.1035,4.1043,4.103,4.1052,4.1051,4.1037,4.104,4.1028,4.1025,4.1024,4.1017,4.1016,4.1022,4.1027,4.1032,4.1059,4.1057,4.1072,4.1078,4.1083,4.1086,4.11,4.1107,4.1033,4.1033,4.1033,0,0,4.1057,4.1051,4.1057,4.1059,4.1056,4.1066,4.1036,4.1047,4.1054,4.1026,4.1042,4.1037,4.1034,4.1056,4.1066,4.1054,4.1106,4.1087,4.1091,4.1091,4.1104,4.1111,4.1117,4.1036,4.1035,4.1035,0,0,4.1103,4.1099,4.1116,4.1114,4.111,4.11,4.1104,4.1096,4.1091,4.1107,4.1086,4.1094,4.1106,4.1104,4.1105,4.1152,4.1135,4.1154,4.1184,4.1198,4.1203,4.1208,4.1225,4.1231,4.1157,4.1157,4.1157,0,4.1132,4.1145,4.1127,4.114,4.1142,4.1116,4.1134,4.1133,4.1131,4.1133,4.1119,4.1133,4.1129,4.1151,4.1162,4.1164,4.1168,4.1154,4.1204,4.1209,4.1213,4.1229,4.1235,4.116,4.1159,4.1159,4.1159,0,4.1181,4.119,4.1205,4.1203,4.1206,4.1222,4.1206,4.1212,4.12,4.1192,4.1208,4.1203,4.1207,4.1211,4.1199,4.1231,4.1224,4.1207,4.1183,4.1223,4.1237,4.1243,4.1163,4.1162,4.1161,4.1161,0,0,4.125,4.1238,4.1244,4.1243,4.1237,4.1244,4.1258,4.1262,4.1267,4.1267,4.1278,4.1289,4.1273,4.1274,4.1262,4.1275,4.1312,4.1257,4.1256,4.1267,4.1347,4.1359,4.1366,4.1301,4.1302,4.1303,4.1347,0,4.1293,4.1316,4.1301,4.1327,4.1336,4.1312,4.1325,4.1322,4.1315,4.1322,4.1314,4.1322,4.1301,4.1302,4.1313,4.1305,4.1327,4.1301,4.1312,4.1312,4.1313,4.1374,4.1386,4.1428,4.1352,4.1353,4.1354,0,4.1347,4.1349,4.1376,4.1368,4.1371,4.1383,4.1385,4.1391,4.1389,4.1382,4.1384,4.1369,4.1383,4.1359,4.1378,4.136,4.1364,4.1361,4.1362,4.1362,4.1335,4.1375,4.1441,4.1448,4.1363,4.1362,4.1361,0,4.1395,4.1404,4.1421,4.1421,4.1413,4.1421,4.1418,4.1414,4.1417,4.1419,4.1421,4.1425,4.1427,4.1431,4.1417,4.1401,4.1438,4.1413,4.1433,4.1434,4.1442,4.1441,4.1509,4.1445,4.1444,4.1444,4.1444,0,4.1446,4.1463,4.1443,4.1453,4.1472,4.1454,4.1474,4.1468,4.1465,4.1474,4.1454,4.1463,4.1445,4.1453,4.1442,4.1459,4.1461,4.1456,4.1453,4.1458,4.1458,4.1459,4.1456,4.1446,4.1446,4.1445,4.1445,0,4.1502,4.1489,4.1506,4.1497,4.1495,4.1509,4.1501,4.151,4.1502,4.1514,4.1516,4.1503,4.1511,4.1498,4.1504,4.1497,4.1521,4.1514,4.1522,4.1519,4.1541,4.1539,4.1611,4.162,4.155,4.1551,4.1551,0,4.1535,4.1547,4.1539,4.1544,4.1542,4.155,4.1553,4.1536,4.154,4.1538,4.1548,4.1554,4.1558,4.1572,4.1563,4.1568,4.156,4.1586,4.1561,4.1565,4.1561,4.156,4.1561,4.1591,4.1591,4.1592,4.1593,0,4.1595,4.1588,4.1593,4.1596,4.16,4.1601,4.1602,4.1607,4.1589,4.1595,4.1603,4.1606,4.1612,4.1618,4.1621,4.1618,4.1603,4.1601,4.1605,4.161,4.1614,4.1612,4.1535,4.1599,4.1598,4.1598,4.1597,4.1597,4.164,4.165,4.1646,4.1652,4.1651,4.1652,4.166,4.1653,4.1659,4.1662,4.1652,4.1662,4.166,4.1661,4.166,4.1668,4.1657,4.1664,4.1666,4.1668,4.1671,4.1613,4.1669,4.1668,4.1668,4.1668,4.1668,0,4.1699,4.1695,4.1701,4.1702,4.1707,4.1692,4.1691,4.1697,4.1705,4.1704,4.1708,4.1717,4.1723,4.1715,4.172,4.1728,4.1721,4.173,4.1729,4.1728,4.1681,4.1676,4.1735,4.1735,4.1735,4.1735,4.1735,4.1735,4.173,4.1746,4.1739,4.1755,4.1751,4.176,4.1761,4.1762,4.176,4.1771,4.1776,4.1771,4.1767,4.1771,4.1776,4.1774,4.1776,4.1788,4.1783,4.1738,4.1732,4.1725,4.1721,4.1788,4.1788,4.1829,4.183,4.183]}]]